Regional Weather Roundup
Issued by NWS

Home | Current Version | Previous Version | Graphics & Text | Print | Product List | Glossary Off
Versions: 1 2 3 4 5 6 7 8 9 10 11 12 13 14 15 16 17 18 19 20 21 22 23 24 25 26 27

000
ASUS45 KBOU 312207
RWRCO

WEATHER ROUNDUP FOR COLORADO
NATIONAL WEATHER SERVICE DENVER/BOULDER CO
400 PM MDT FRI OCT 31 2014

NOTE: "FAIR" INDICATES FEW OR NO CLOUDS BELOW 12000 FEET WITH NO
SIGNIFICANT WEATHER AND/OR OBSTRUCTIONS TO VISIBILITY.

COZ001>005-013-030-031-312300-
...NORTHWEST COLORADO...

CITY           SKY/WX    TMP DP  RH WIND       PRES   REMARKS
CRAIG          MOSUNNY   69  23  17 SW17G24   30.08F
HAYDEN         MOSUNNY   68  21  17 W12G20    30.09F
MEEKER         SUNNY     68  23  18 S12G23    30.11F
MOUNT WERNER   NOT AVBL
STEAMBOAT SPGS MOSUNNY   65  25  22 CALM      30.12F
WALDEN         PTSUNNY   59  18  20 SW18G26   30.17F
$$

COZ006>008-011-312300-
...WEST CENTRAL VALLEYS...

CITY           SKY/WX    TMP DP  RH WIND       PRES   REMARKS
GRAND JUNCTION MOSUNNY   68  26  20 W8        30.05F
MONTROSE       PTSUNNY   68  25  19 NW6       30.13F
EAGLE          MOSUNNY   63  27  25 CALM      30.15F
RIFLE          MOSUNNY   67  25  20 CALM      30.08F
DELTA          PTSUNNY   65  31  27 CALM      30.09F
NUCLA          PTSUNNY   68  23  18 S5        30.17S
$$

COZ017>023-064>068-312300-
...SOUTHWEST COLORADO...

CITY           SKY/WX    TMP DP  RH WIND       PRES   REMARKS
DURANGO        MOSUNNY   64  28  25 NE6       30.22F
CORTEZ         SUNNY     67  28  23 SE13      30.15F
PAGOSA SPRINGS MOSUNNY   62  22  21 CALM      30.28F
TELLURIDE      CLOUDY    55  17  23 SE20      30.30F
WOLF CREEK PAS PTSUNNY   37  23  56 SW18G31   30.46F
$$

COZ009-010-012-014-032>034-037-058>063-312300-
...CENTRAL COLORADO...

CITY           SKY/WX    TMP DP  RH WIND       PRES   REMARKS
ASPEN          PTSUNNY   61  18  18 NW10G17   30.17F
BUENA VISTA    MOSUNNY   59  20  21 SE5       30.22F
COPPER MTN     PTSUNNY   45  10  24 W15       30.42S
BERTHOUD PASS  FAIR      36  32  87 NW14      30.45S
COTTONWOOD PAS MOSUNNY   55  18  22 SE5       30.32F
GUNNISON       PTSUNNY   61  19  20 CALM      30.23F
KREMMLING      MOSUNNY   63  10  13 SW14G22   30.16F
LEADVILLE      PTSUNNY   55   5  13 W14       30.28F
MONARCH PASS   MOSUNNY   45  18  33 SW23G31   30.52S
SALIDA         MOSUNNY   63  20  19 S17G25    30.26F
SUNLIGHT       PTSUNNY   52  21  30 CALM      30.37S
WILKERSON PASS NOT AVBL
$$

COZ069>075-312300-
...SAN LUIS VALLEY/SANGRE DE CRISTO MOUNTAINS...

CITY           SKY/WX    TMP DP  RH WIND       PRES   REMARKS
ALAMOSA        PTSUNNY   60  25  26 S17G26    30.25F
LA VETA PASS   MOSUNNY   52  21  30 S10G22    30.38F
SAGUACHE       MOSUNNY   55  21  26 S9        30.29S
$$

COZ035-036-038>040-312300-
...NORTHERN COLORADO FRONT RANGE...

CITY           SKY/WX    TMP DP  RH WIND       PRES   REMARKS
DENVER INTL AP PTSUNNY   57  31  37 NW9       30.13S
DMNS CITY PARK   N/A     56  29  35 NW5       30.13S
AURORA         PTSUNNY   58  31  35 N6        30.14F
FRONT RANGE AP PTSUNNY   61  30  31 S17       30.14
ERIE MUNI ARPT MOSUNNY   54  29  38 CALM      30.14F
BOULDER MUN AP MOSUNNY   52  32  46 CALM      30.14S
CENTENNIAL     PTSUNNY   57  30  35 SE10      30.14S
BROOMFIELD     PTSUNNY   54  30  40 VRB3      30.15F
FORT COLLINS   PTSUNNY   50  28  43 CALM      30.16F
LONGMONT       PTSUNNY   57  31  37 N3        30.16F
$$

COZ041-046-047-076>085-087-088-312300-
...PIKES PEAK/PALMER DIVIDE AND SOUTHERN FOOTHILLS...

CITY           SKY/WX    TMP DP  RH WIND       PRES   REMARKS
COLO. SPRINGS  PTSUNNY   51  27  39 SE13      30.23F
A. F. ACADEMY  MOSUNNY   47  27  45 S14       30.22F
ELLICOTT       MOSUNNY   52  27  38 S17       30.21F
FALCON         MOSUNNY   48  26  42 S13       30.25S
FORT CARSON    MOSUNNY   52  27  38 SE12      30.21F
LIMON          SUNNY     50  28  42 S28G36    30.21F
MONUMENT HILL  SUNNY     45  28  53 S26G33    30.16F
TRINIDAD       MOSUNNY   65  27  23 S16       30.19F
$$

COZ042>045-048>051-090-091-312300-
...NORTHEAST COLORADO...

CITY           SKY/WX    TMP DP  RH WIND       PRES   REMARKS
GREELEY ARPT   MOSUNNY   57  30  35 NW5       30.14F
AKRON          SUNNY     52  26  36 S28G36    30.19F
BURLINGTON     SUNNY     50  26  39 S22G32    30.27F
WRAY           SUNNY     53  26  34 SE20G28   30.26F
STERLING       SUNNY     61  32  33 S22G29    30.17F
HOLYOKE        SUNNY     52  28  40 SE22      30.25F
FORT MORGAN    SUNNY     56  28  32 S20G25    30.16F
$$

COZ086-089-092>099-312300-
...SOUTHEAST COLORADO...

CITY           SKY/WX    TMP DP  RH WIND       PRES   REMARKS
PUEBLO         MOSUNNY   60  29  30 CALM      30.18F
LA JUNTA       MOSUNNY   63  29  27 SE18      30.16F
LAMAR          SUNNY     59  29  31 S25G32    30.24F
SPRINGFIELD      N/A     56  29  35 S22G30    30.28F
$$



USA.gov is the U.S. government's official web portal to all federal, state and local government web resources and services.